ORBCOMM FM112

Last updated on Sat Aug 15 2026 00:03:10 GMT+0000 (Coordinated Universal Time)

1 41184U 15081F 26226.42184242 .00000164 00000+0 70734-4 0 9993 2 41184 47.0004 354.8539 0002626 130.9065 229.2048 14.58971927567459
UTC large
Height (km)
Speed (km/s)
/
Latitude / Longitude
Inclination (degrees)
Orbital Period (minutes)
Azimuth
Elevation
Range (km)
Doppler Factor

Next 0 passes for location: London (51.5072 / 0.1276)

No passes found over London.
ORBCOMM FM112